This demonstration page uses our WeatherBlox Daily Observations layout. Learn more.

Left ArrowRight Arrow

39.12711, -84.51439

Hourly Observations for June 13, 2017

Temp ( °F °C ) Dew Point ( °F °C ) Humidity (%) Winds ( mph kmh ) Pressure ( in mb ) Visibility ( mi km ) Precip ( " mm )
12:53 am 00:53 Cloudy 72 22.2 71 21.7 97 97 Calm 30.04 1017 10 16 0.00 0.00
1:53 am 01:53 Clear 73 22.8 71 21.7 94 94 Calm 30.02 1017 10 16 0.00 0.00
2:53 am 02:53 Clear 72 22.2 71 21.7 97 97 Calm 30.02 1017 10 16 0.00 0.00
3:53 am 03:53 Clear 69 20.6 69 20.6 100 100 Calm 30.01 1016 7 11 0.00 0.00
4:53 am 04:53 Clear 71 21.7 70 21.1 96 96 Calm 30.02 1017 10 16 0.00 0.00
5:53 am 05:53 Mostly Cloudy 71 21.7 70 21.1 96 96 Calm 30.03 1017 9 14 0.00 0.00
6:53 am 06:53 Mostly Cloudy 70 21.1 70 21.1 100 100 SW 5 7 30.04 1017 10 16 0.00 0.00
7:53 am 07:53 Partly Cloudy 73 22.8 72 22.2 96 96 Calm 30.04 1017 9 14 0.00 0.00
8:53 am 08:53 Sunny 77 25 73 22.8 88 88 S 6 9 30.05 1018 10 16 0.00 0.00
9:53 am 09:53 Partly Cloudy 82 27.8 74 23.3 77 77 VRB 5 7 30.05 1018 10 16 0.00 0.00
10:36 am 10:36 Mostly Cloudy 85 29.4 74 23.3 70 70 SSW 9 15 30.03 1017 10 16 0.00 0.00
10:53 am 10:53 Mostly Cloudy 85 29.4 74 23.3 70 70 W 7 11 30.03 1017 10 16 0.00 0.00
11:43 am 11:43 Mostly Cloudy with Thunderstorms 84 28.9 74 23.3 72 72 SW 3 6 30.00 1016 10 16 0.00 0.00
11:53 am 11:53 Mostly Cloudy with Thunderstorms 85 29.4 74 23.3 70 70 SW 5 7 30.02 1017 10 16 0.00 0.00
12:15 pm 12:15 Cloudy with Thunderstorms 80 26.7 66 18.9 62 62 NW 9 15 30.00 1016 7 11 0.00 0.03
12:21 pm 12:21 Cloudy with Thunderstorms 79 26.1 66 18.9 65 65 VRB 7 11 30.03 1017 7 11 0.00 0.03
12:53 pm 12:53 Mostly Cloudy with Thunderstorms 76 24.4 69 20.6 79 79 Calm 30.06 1018 8 13 0.00 0.03
1:29 pm 13:29 Mostly Cloudy with Thunderstorms 73 22.8 70 21.1 90 90 NE 6 9 30.03 1017 10 16 0.00 0.03
1:53 pm 13:53 Partly Cloudy with Nearby Thunderstorms 73 22.8 70 21.1 90 90 Calm 30.05 1018 10 16 0.00 0.03
1:56 pm 13:56 Mostly Cloudy with Thunderstorms 73 22.8 70 21.1 90 90 NNE 3 6 30.03 1017 10 16 0.00 0.03
2:39 pm 14:39 Partly Cloudy with Light Rain 73 22.8 71 21.7 94 94 S 5 7 30.03 1017 10 16 0.00 0.03
2:53 pm 14:53 Mostly Cloudy with Light Rain 73 22.8 70 21.1 90 90 Calm 30.05 1018 10 16 0.00 0.03
3:53 pm 15:53 Mostly Sunny 73 22.8 71 21.7 94 94 SSW 6 9 30.01 1016 10 16 0.01 0.25
4:53 pm 16:53 Sunny 77 25 71 21.7 82 82 Calm 30.00 1016 10 16 0.00 0.00
5:53 pm 17:53 Sunny 77 25 73 22.8 88 88 S 7 11 29.98 1015 10 16 0.00 0.00
6:53 pm 18:53 Sunny 78 25.6 74 23.3 87 87 S 5 7 29.98 1015 10 16 0.00 0.00
7:53 pm 19:53 Mostly Sunny 76 24.4 73 22.8 91 91 S 8 13 29.98 1015 10 16 0.00 0.00
8:53 pm 20:53 Sunny 73 22.8 72 22.2 96 96 Calm 29.98 1015 10 16 0.00 0.00
9:53 pm 21:53 Clear 73 22.8 72 22.2 96 96 SW 5 7 30.01 1016 10 16 0.00 0.00
10:53 pm 22:53 Clear 73 22.8 70 21.1 90 90 S 5 7 30.01 1016 10 16 0.00 0.00
11:53 pm 23:53 Clear 72 22.2 70 21.1 94 94 Calm 30.01 1016 10 16 0.00 0.00

Powered by AerisWeather